EW6627 St Petersburg FL US current weather conditions

sailwx.info

Wind from 022 at 0 knots gusting 5

Air temperature 18.3° C
Dewpoint 13.4° C

Last reported at 2019-Mar-19 01:05 UTC.
Time now 2019-Mar-19 01:32 UTC

Location: N 27°47' W 082°41'.
View on Google Maps.

See reports from other nearby stations

  
Tides and Currents Weather Stations Pressure Air Temp Water Temp Dewpoint Dewpoint Depression Visibility Wind Speed Wind Dir Waves Ship Positions
date/time (UTC)wind fromknots sea level pressurealtimeterstation pressurevisibilityair tempwater tempwave heightnotes
2019-Mar-19 01:05 022 0 gusting 5 18.3
2019-Mar-19 01:00 026 0 gusting 5 18.3
2019-Mar-19 00:50 037 18.9
2019-Mar-19 00:47 030 18.9
2019-Mar-19 00:40 036 18.9
2019-Mar-19 00:38 031 0 gusting 6 18.9
2019-Mar-19 00:27 015 19.4
2019-Mar-19 00:20 051 0 gusting 3 19.4
2019-Mar-19 00:15 061 19.4
2019-Mar-19 00:05 010 19.4
2019-Mar-18 23:55 074 20.6
2019-Mar-18 23:48 115 20.6
2019-Mar-18 23:35 030 20.6
2019-Mar-18 23:00 033 21.1
2019-Mar-18 22:55 016 21.1
2019-Mar-18 22:45 035 0 gusting 7 21.1
2019-Mar-18 22:40 005 21.7
2019-Mar-18 22:35 042 0 gusting 3 21.7
2019-Mar-18 22:30 013 0 gusting 4 21.7
2019-Mar-18 22:16 030 0 gusting 5 22.2
2019-Mar-18 22:07 044 0 gusting 5 22.2
2019-Mar-18 21:55 355 0 gusting 7 22.8
2019-Mar-18 21:50 015 0 gusting 7 22.2
2019-Mar-18 21:42 017 22.8
2019-Mar-18 21:37 355 0 gusting 6 22.8
2019-Mar-18 21:30 026 0 gusting 6 22.8
2019-Mar-18 21:20 020 1 gusting 6 23.3
2019-Mar-18 21:15 027 0 gusting 5 23.3
2019-Mar-18 21:00 034 0 gusting 5 23.3
2019-Mar-18 20:55 025 1 gusting 6 23.3
2019-Mar-18 20:50 060 1 gusting 7 23.9
2019-Mar-18 20:25 355 1 gusting 10 24.4
2019-Mar-18 20:19 046 0 gusting 7 25.0
2019-Mar-18 20:05 259 0 gusting 5 25.6
2019-Mar-18 20:00 045 1 gusting 6 26.1
2019-Mar-18 19:55 032 1 gusting 7 26.1
2019-Mar-18 19:50 005 1 gusting 7 26.1
2019-Mar-18 19:42 319 1 gusting 8 26.1
2019-Mar-18 19:40 050 1 gusting 7 25.6
2019-Mar-18 19:30 040 0 gusting 8 26.1
2019-Mar-18 19:20 061 0 gusting 4 25.6
2019-Mar-18 19:15 026 25.6
2019-Mar-18 19:10 032 0 gusting 6 25.0
2019-Mar-18 19:01 035 1 gusting 7 26.1
2019-Mar-18 18:58 038 0 gusting 6 26.1
2019-Mar-18 18:39 073 1 gusting 10 26.1
2019-Mar-18 18:34 022 0 gusting 10 26.1
2019-Mar-18 18:29 355 0 gusting 7 26.1
2019-Mar-18 18:25 033 0 gusting 7 26.1
2019-Mar-18 18:14 020 0 gusting 7 26.7
2019-Mar-18 18:10 057 0 gusting 4 27.2
2019-Mar-18 18:00 049 26.7
2019-Mar-18 17:49 045 26.7
2019-Mar-18 17:37 034 1 gusting 7 26.1
2019-Mar-18 17:32 048 1 gusting 7 25.6
2019-Mar-18 17:24 041 2 gusting 9 25.0
2019-Mar-18 17:19 326 2 gusting 9 25.0
2019-Mar-18 17:14 082 1 gusting 7 25.6
2019-Mar-18 17:04 192 1 gusting 7 24.4
2019-Mar-18 16:59 045 1 gusting 7 24.4
2019-Mar-18 16:54 032 0 gusting 6 24.4
2019-Mar-18 16:42 057 0 gusting 4 23.9
2019-Mar-18 16:35 049 0 gusting 6 24.4
2019-Mar-18 16:34 055 0 gusting 4 23.9
2019-Mar-18 16:19 092 1 gusting 7 23.9
2019-Mar-18 16:14 038 1 gusting 7 23.3
2019-Mar-18 16:07 051 0 gusting 5 22.8
2019-Mar-18 15:55 036 0 gusting 6 22.8
2019-Mar-18 15:54 032 1 gusting 8 22.2
2019-Mar-18 15:44 21.7
2019-Mar-18 15:34 329 0 gusting 6 21.1
2019-Mar-18 15:25 024 1 gusting 8 19.4
2019-Mar-18 15:14 024 1 gusting 8 19.4
2019-Mar-18 15:09 029 1 gusting 10 20.0
2019-Mar-18 15:04 046 2 gusting 10 20.0
2019-Mar-18 14:57 309 1 gusting 8 20.0
2019-Mar-18 14:54 016 0 gusting 8 20.0
2019-Mar-18 14:44 080 1 gusting 8 19.4
2019-Mar-18 14:39 028 1 gusting 8 17.8
2019-Mar-18 14:20 17.8
2019-Mar-18 14:15 023 0 gusting 8 17.2
2019-Mar-18 14:13 041 0 gusting 5 17.2
2019-Mar-18 14:05 013 0 gusting 7 16.7
2019-Mar-18 13:58 16.7
2019-Mar-18 13:44 024 1 gusting 7 16.7
2019-Mar-18 13:34 032 1 gusting 7 16.7
2019-Mar-18 13:28 022 1 gusting 6 16.7
2019-Mar-18 13:14 026 2 gusting 9 16.7
2019-Mar-18 13:07 005 1 gusting 9 16.7
2019-Mar-18 13:02 026 0 gusting 6 16.1
2019-Mar-18 12:59 040 0 gusting 7 16.7
2019-Mar-18 12:47 053 0 gusting 5 16.1
2019-Mar-18 12:40 036 0 gusting 6 15.6
2019-Mar-18 12:24 062 0 gusting 7 15.6
2019-Mar-18 12:19 009 0 gusting 4 15.6
2019-Mar-18 12:14 026 15.6
2019-Mar-18 12:07 011 0 gusting 4 15.6
2019-Mar-18 12:02 017 15.6
2019-Mar-18 11:57 023 0 gusting 4 15.6
2019-Mar-18 11:49 029 15.6
2019-Mar-18 11:38 028 0 gusting 7 15.6
2019-Mar-18 11:33 025 0 gusting 6 15.6
2019-Mar-18 11:26 027 15.6
2019-Mar-18 11:21 040 0 gusting 7 15.6
2019-Mar-18 11:09 355 0 gusting 8 15.6
2019-Mar-18 11:04 028 0 gusting 8 15.6
2019-Mar-18 10:57 016 0 gusting 6 15.6
2019-Mar-18 10:47 015 15.6
2019-Mar-18 10:42 025 0 gusting 5 15.6
2019-Mar-18 10:34 040 0 gusting 8 15.6
2019-Mar-18 10:29 017 1 gusting 8 15.6
2019-Mar-18 10:24 005 0 gusting 5 15.6
2019-Mar-18 10:19 005 0 gusting 5 15.6
2019-Mar-18 10:14 030 0 gusting 6 15.6
2019-Mar-18 10:02 040 1 gusting 6 15.6
2019-Mar-18 09:57 019 0 gusting 6 15.6
2019-Mar-18 09:44 040 1 gusting 7 15.6
2019-Mar-18 09:39 015 0 gusting 4 15.6
2019-Mar-18 09:31 049 0 gusting 6 15.6
2019-Mar-18 09:30 042 0 gusting 6 15.6
2019-Mar-18 09:24 040 1 gusting 6 15.6
2019-Mar-18 08:59 019 1 gusting 10 15.6
2019-Mar-18 08:54 005 2 gusting 10 15.6
2019-Mar-18 08:49 019 0 gusting 7 15.6
2019-Mar-18 08:44 017 15.6
2019-Mar-18 08:39 005 0 gusting 7 15.6
2019-Mar-18 08:34 034 0 gusting 7 15.6
2019-Mar-18 08:29 029 1 gusting 7 15.6
2019-Mar-18 08:24 355 1 gusting 9 15.6
2019-Mar-18 08:19 064 0 gusting 9 15.6
2019-Mar-18 08:11 015 0 gusting 4 15.6
2019-Mar-18 08:10 034 0 gusting 5 15.6
2019-Mar-18 07:58 046 0 gusting 6 15.6
2019-Mar-18 07:53 046 0 gusting 6 15.6
2019-Mar-18 07:39 037 0 gusting 4 15.6
2019-Mar-18 07:34 033 0 gusting 10 16.1
2019-Mar-18 07:24 025 0 gusting 6 16.1
2019-Mar-18 07:16 028 2 gusting 9 16.1
2019-Mar-18 07:11 036 2 gusting 9 16.1
2019-Mar-18 06:59 028 2 gusting 10 16.1
2019-Mar-18 06:49 018 3 gusting 9 16.7
2019-Mar-18 06:44 049 2 gusting 10 16.7
2019-Mar-18 06:39 017 1 gusting 10 16.7
2019-Mar-18 06:34 020 2 gusting 10 16.7
2019-Mar-18 06:24 336 1 gusting 6 16.7
2019-Mar-18 06:18 038 1 gusting 8 16.7
2019-Mar-18 06:14 028 1 gusting 8 16.7
2019-Mar-18 05:58 034 0 gusting 8 17.2
2019-Mar-18 05:54 031 0 gusting 8 16.7
2019-Mar-18 05:36 013 1 gusting 8 17.2
2019-Mar-18 05:31 044 17.2
2019-Mar-18 05:30 034 0 gusting 7 17.2
2019-Mar-18 05:24 047 0 gusting 3 17.2
2019-Mar-18 05:04 032 17.2
2019-Mar-18 04:53 005 17.2
2019-Mar-18 04:46 029 17.2
2019-Mar-18 04:39 17.2
2019-Mar-18 04:31 098 17.2
2019-Mar-18 04:27 030 17.2
2019-Mar-18 04:23 059 17.8
2019-Mar-18 04:20 021 17.2
2019-Mar-18 04:04 018 17.8
2019-Mar-18 03:59 053 17.8
2019-Mar-18 03:44 061 17.8
2019-Mar-18 03:39 009 17.8
2019-Mar-18 03:31 036 0 gusting 4 17.8
2019-Mar-18 03:26 057 0 gusting 4 17.8
2019-Mar-18 03:21 026 0 gusting 4 17.8
2019-Mar-18 03:13 011 0 gusting 6 17.8
2019-Mar-18 03:06 040 0 gusting 6 17.8
2019-Mar-18 02:53 341 1 gusting 6 18.3
2019-Mar-18 02:48 042 1 gusting 7 18.3
2019-Mar-18 02:38 030 0 gusting 6 18.3
2019-Mar-18 02:33 017 0 gusting 6 18.3
2019-Mar-18 02:26 034 0 gusting 4 18.3
2019-Mar-18 02:21 040 0 gusting 5 18.9
2019-Mar-18 02:12 022 0 gusting 5 18.9
2019-Mar-18 02:04 063 1 gusting 8 18.9
2019-Mar-18 01:51 030 1 gusting 6 18.9
2019-Mar-18 01:46 034 0 gusting 6 18.9
2019-Mar-18 01:33 042 0 gusting 5 19.4
2019-Mar-18 01:28 036 0 gusting 7 19.4
2019-Mar-18 01:23 035 0 gusting 7 19.4
2019-Mar-18 01:16 025 1 gusting 8 19.4
2019-Mar-18 01:11 025 1 gusting 8 20.0
2019-Mar-18 01:06 005 2 gusting 8 20.0
2019-Mar-18 01:03 026 1 gusting 6 20.0
2019-Mar-18 00:56 005 0 gusting 6 21.7
2019-Mar-18 00:53 005 1 gusting 8 20.6
2019-Mar-18 00:42 355 0 gusting 6 20.6
2019-Mar-18 00:40 024 1 gusting 7 20.6
2019-Mar-18 00:22 038 0 gusting 6 20.6
2019-Mar-18 00:16 041 1 gusting 7 21.1
2019-Mar-18 00:14 038 0 gusting 6 21.1
2019-Mar-17 23:57 029 1 gusting 6 21.1
2019-Mar-17 23:38 051 0 gusting 6 21.7
2019-Mar-17 23:28 036 0 gusting 6 21.7
2019-Mar-17 23:23 049 0 gusting 6 21.7
2019-Mar-17 23:15 032 0 gusting 6 22.2
2019-Mar-17 23:09 038 0 gusting 5 22.2
2019-Mar-17 22:50 016 0 gusting 3 22.8
2019-Mar-17 22:41 018 22.8
2019-Mar-17 22:37 034 0 gusting 3 22.8
2019-Mar-17 22:26 005 0 gusting 4 23.3
2019-Mar-17 22:21 051 0 gusting 5 22.8
2019-Mar-17 22:18 038 0 gusting 4 22.8
2019-Mar-17 22:14 017 0 gusting 5 22.8
2019-Mar-17 21:58 005 23.3
2019-Mar-17 21:46 027 0 gusting 4 23.3
2019-Mar-17 21:38 005 0 gusting 4 23.3
2019-Mar-17 21:32 005 0 gusting 4 23.3
2019-Mar-17 21:29 017 0 gusting 4 23.9
2019-Mar-17 21:13 034 0 gusting 4 23.9
2019-Mar-17 21:08 015 0 gusting 4 23.9
2019-Mar-17 21:03 038 0 gusting 4 24.4
2019-Mar-17 20:58 060 0 gusting 5 24.4
2019-Mar-17 20:53 041 0 gusting 5 25.0
2019-Mar-17 20:49 126 25.6
2019-Mar-17 20:39 143 22.8
2019-Mar-17 20:34 355 25.6
2019-Mar-17 20:23 020 25.0
2019-Mar-17 20:07 039 23.3
2019-Mar-17 20:03 038 23.3
2019-Mar-17 19:58 042 23.3
2019-Mar-17 19:48 005 23.3
2019-Mar-17 19:42 038 23.3
2019-Mar-17 19:29 038 23.3
2019-Mar-17 19:22 143 22.8
2019-Mar-17 19:16 143 22.8
2019-Mar-17 18:58 143 22.8
2019-Mar-17 18:53 144 22.2
2019-Mar-17 18:48 127 22.8
2019-Mar-17 18:43 128 0 gusting 3 22.8
2019-Mar-17 18:33 128 23.9
2019-Mar-17 18:23 078 24.4
2019-Mar-17 18:18 132 24.4
2019-Mar-17 18:13 054 24.4
2019-Mar-17 18:08 124 25.0
2019-Mar-17 18:03 042 25.0
2019-Mar-17 17:58 123 25.6
2019-Mar-17 17:48 057 25.6
2019-Mar-17 17:41 113 0 gusting 5 25.0
2019-Mar-17 17:28 127 25.6
2019-Mar-17 17:18 019 25.6
2019-Mar-17 17:14 144 25.0
2019-Mar-17 17:09 005 0 gusting 4 25.0
2019-Mar-17 16:56 015 0 gusting 6 23.9
2019-Mar-17 16:48 044 0 gusting 6 23.3
2019-Mar-17 16:43 094 0 gusting 6 23.3
2019-Mar-17 16:38 021 22.8
2019-Mar-17 16:33 309 22.8
2019-Mar-17 16:24 062 0 gusting 7 22.2
2019-Mar-17 16:15 032 0 gusting 6 23.9
2019-Mar-17 16:10 038 0 gusting 6 23.9
2019-Mar-17 16:08 355 0 gusting 4 21.7
2019-Mar-17 16:04 355 23.3
2019-Mar-17 15:59 355 1 gusting 8 23.3
2019-Mar-17 15:51 011 23.3
2019-Mar-17 15:44 026 0 gusting 6 23.9
2019-Mar-17 15:16 026 23.3
2019-Mar-17 15:15 033 23.3
2019-Mar-17 15:05 23.3
2019-Mar-17 15:00 026 0 gusting 6 22.8
2019-Mar-17 14:53 038 22.8
2019-Mar-17 14:48 033 0 gusting 4 22.2
2019-Mar-17 14:38 024 0 gusting 4 22.2
2019-Mar-17 14:33 016 21.7
2019-Mar-17 14:28 032 21.7
2019-Mar-17 14:18 011 21.1
2019-Mar-17 14:08 005 21.1
2019-Mar-17 14:00 20.6
2019-Mar-17 13:53 049 20.0
2019-Mar-17 13:43 012 20.0
2019-Mar-17 13:38 053 19.4
2019-Mar-17 13:30 028 19.4
2019-Mar-17 13:25 038 19.4
2019-Mar-17 13:20 035 19.4
2019-Mar-17 13:08 044 0 gusting 3 18.9
2019-Mar-17 13:03 034 18.9
2019-Mar-17 12:56 046 18.3
2019-Mar-17 12:53 018 18.9
2019-Mar-17 12:48 026 18.3
2019-Mar-17 12:38 027 18.3
2019-Mar-17 12:30 025 18.3
2019-Mar-17 12:28 032 18.3
2019-Mar-17 12:20 015 18.3
2019-Mar-17 12:19 027 18.3
2019-Mar-17 12:01 016 18.3
2019-Mar-17 11:56 040 18.3
2019-Mar-17 11:52 104 18.3
2019-Mar-17 11:40 027 18.3
2019-Mar-17 11:35 031 18.3
2019-Mar-17 11:23 035 18.3
2019-Mar-17 11:20 035 18.3
2019-Mar-17 11:08 025 18.3
2019-Mar-17 10:52 017 18.3
2019-Mar-17 10:47 018 18.3
2019-Mar-17 10:37 017 18.9
2019-Mar-17 10:33 022 18.9
2019-Mar-17 10:28 069 18.9
2019-Mar-17 10:18 011 18.9
2019-Mar-17 10:07 009 0 gusting 7 18.9
2019-Mar-17 09:59 013 18.9
2019-Mar-17 09:45 038 19.4
2019-Mar-17 09:37 017 19.4
2019-Mar-17 09:27 079 19.4
2019-Mar-17 09:20 030 19.4
2019-Mar-17 09:10 046 19.4
2019-Mar-17 09:05 028 19.4
2019-Mar-17 08:57 028 19.4
2019-Mar-17 08:52 128 19.4
2019-Mar-17 08:47 005 19.4
2019-Mar-17 08:42 013 19.4
2019-Mar-17 08:30 034 19.4
2019-Mar-17 08:22 036 19.4
2019-Mar-17 08:12 056 19.4
2019-Mar-17 08:02 20.0
2019-Mar-17 07:52 032 19.4
2019-Mar-17 07:47 040 19.4
2019-Mar-17 07:42 019 19.4
2019-Mar-17 07:39 035 20.0
2019-Mar-17 07:09 038 19.4
2019-Mar-17 07:03 016 20.0
2019-Mar-17 06:52 005 20.0
2019-Mar-17 06:42 355 19.4
2019-Mar-17 06:37 048 19.4
2019-Mar-17 06:35 043 19.4
2019-Mar-17 06:27 010 19.4
2019-Mar-17 06:22 355 19.4
2019-Mar-17 06:17 103 19.4
2019-Mar-17 06:10 090 0 gusting 3 19.4
2019-Mar-17 06:09 211 19.4
2019-Mar-17 05:45 159 0 gusting 3 19.4
2019-Mar-17 05:37 032 20.0
2019-Mar-17 05:32 038 20.0
2019-Mar-17 05:27 093 20.0
2019-Mar-17 05:22 005 0 gusting 4 20.0
2019-Mar-17 05:07 347 20.0
2019-Mar-17 05:00 078 0 gusting 6 20.0
2019-Mar-17 04:52 090 0 gusting 3 20.0
2019-Mar-17 04:49 036 1 gusting 6 21.7
2019-Mar-17 04:40 111 0 gusting 4 20.6
2019-Mar-17 04:36 012 1 gusting 7 21.7
2019-Mar-17 04:34 026 0 gusting 10 20.6
2019-Mar-17 04:25 20.6
2019-Mar-17 04:21 052 0 gusting 5 21.1
2019-Mar-17 04:18 053 20.6
2019-Mar-17 04:13 026 0 gusting 5 20.6
2019-Mar-17 03:51 034 1 gusting 7 21.1
2019-Mar-17 03:42 022 1 gusting 8 21.7
2019-Mar-17 03:26 038 0 gusting 5 21.7
2019-Mar-17 03:20 030 0 gusting 6 21.7
2019-Mar-17 03:11 049 21.7
2019-Mar-17 03:06 061 0 gusting 5 21.7
2019-Mar-17 02:52 035 0 gusting 6 21.7
2019-Mar-17 02:47 025 0 gusting 6 21.7
2019-Mar-17 02:44 048 21.7
2019-Mar-17 02:35 049 21.7
2019-Mar-17 02:30 049 21.7
2019-Mar-17 02:22 020 21.7
2019-Mar-17 02:17 019 21.7
2019-Mar-17 02:07 019 21.7
2019-Mar-17 02:04 019 21.7
2019-Mar-17 01:52 019 21.7
2019-Mar-17 01:49 019 21.7
2019-Mar-17 01:37 019 21.7
2019-Mar-17 01:27 019 22.2
2019-Mar-17 01:22 019 22.2
2019-Mar-17 01:20 021 0 gusting 3 22.2
2019-Mar-17 01:11 019 22.2
2019-Mar-17 01:07 017 0 gusting 6 22.2
2019-Mar-17 01:00 011 1 gusting 6 22.2